Погода в Полоцком

Россия / Челябинская область     52°46′04″N   59°42′24″E
темп.,
°C
ветер,
м/с
пор.,
м/с
влажн.,
%
обл.,
%
осадки,
мм/ч
давл.,
гПа
погр.,
м
15 апреля, чт
чт1523:00+7ю22695 0.0 103117
02:00+5ю22619 0.0 103010
05:00+4юз226427 0.0 103010
08:00+6юз12655 0.0 102943
11:00+12ююз234951 0.0 1027299
14:00+16ююз23368 0.0 1025652
17:00+17ююз22325 0.0 1024813
20:00+12ююз224812 0.0 102310
16 апреля, пт
пт1623:00+9ююз225883 0.0 102210
02:00+8юз2261100 0.0 102210
05:00+6зюз115971 0.0 102110
08:00+8ссз1160100 0.0 102110
11:00+13св1145100 0.0 1020331
14:00+16всв223397 0.0 1020974
17:00+17всв223298 0.0 10191275
20:00+12вюв335166 0.0 101923
17 апреля, сб
сб1723:00+9св6108691 0.0 1021258
02:00+7всв599630 0.0 1021222
05:00+7всв4592100 0.0 1022359
08:00+7всв3587100 0.0 1022502
11:00+8в3382100 0.0 1022571
14:00+10в3378100 0.0 1022717
17:00+10в337398 0.0 1021757
20:00+9в34781 0.0 102076
18 апреля, вс
вс1823:00+6в34914 0.0 102061
02:00+5вюв22915 0.0 101926
05:00+5в119187 0.0 101910
08:00+6св348992 0.0 1018195
11:00+6св5663100 0.0 1018456
14:00+8ссв46549 0.0 1018839
17:00+10св774797 0.0 10171407
20:00+3всв81160100 0.0 10221041
19 апреля, пн
пн1923:00+1всв9125195 0.0 10251053
02:00−1всв711542 0.0 10271025
05:00−2всв710490 0.0 10301260
08:00−3св810371 0.0 10311357
11:00−1св810314 0.0 10321628
14:000св910295 0.0 10321825
17:000св810315 0.0 10331915
20:00−2св610403 0.0 1034537